QPF
0.04 0.04 0.03 0.03 0.03 0.03 0.02 0.02 0.05 0.03 0.01 0.01 0.01 0.01 0.01 0.01 0.01 0.03 0.06 0.08 0.11 0.10 0.10 0.08 0.05 0.04 0.03 0.03 0.02 0.02 0.02 0.02 0.02 0.03 0.04 0.07 0.09 0.11
0.04 0.04 0.04 0.05 0.06 0.07 0.05 0.04 0.04 0.04 0.02 0.01 0.01 0.01 0.01 0.01 0.01 0.02 0.07 0.09 0.08 0.07 0.10 0.09 0.06 0.05 0.05 0.04 0.02 0.01 0.01 0.01 0.01 0.01 0.02 0.03 0.05 0.07
0.03 0.03 0.03 0.04 0.04 0.04 0.04 0.04 0.05 0.05 0.04 0.02 0.01 0.01 0.00 0.01 0.01 0.02 0.07 0.10 0.08 0.07 0.08 0.08 0.08 0.08 0.06 0.05 0.03 0.01 0.01 0.01 0.01 0.01 0.01 0.01 0.02 0.03
0.04 0.03 0.02 0.02 0.02 0.02 0.02 0.03 0.05 0.06 0.07 0.05 0.03 0.02 0.01 0.01 0.01 0.02 0.08 0.08 0.07 0.06 0.06 0.07 0.10 0.10 0.07 0.05 0.02 0.01 0.01 0.01 0.01 0.01 0.01 0.01 0.01 0.01
0.04 0.04 0.04 0.03 0.02 0.01 0.01 0.02 0.03 0.04 0.04 0.04 0.03 0.03 0.02 0.02 0.01 0.02 0.05 0.05 0.05 0.04 0.04 0.05 0.05 0.05 0.04 0.03 0.02 0.01 0.01 0.01 0.01 0.01 0.01 0.01 0.01 0.01
0.02 0.03 0.03 0.03 0.03 0.02 0.01 0.02 0.03 0.03 0.02 0.02 0.01 0.02 0.02 0.02 0.02 0.02 0.03 0.03 0.02 0.01 0.02 0.04 0.03 0.03 0.03 0.03 0.02 0.02 0.02 0.01 0.01 0.01 0.01 0.01 0.01 0.01
0.02 0.02 0.02 0.03 0.04 0.03 0.02 0.02 0.02 0.02 0.02 0.01 0.01 0.00 0.01 0.01 0.01 0.01 0.02 0.02 0.01 0.01 0.01 0.02 0.01 0.01 0.02 0.02 0.03 0.02 0.02 0.01 0.01 0.01 0.01 0.01 0.01 0.01
0.03 0.03 0.03 0.03 0.04 0.03 0.03 0.02 0.02 0.01 0.01 0.01 0.01 0.01 0.00 0.00 0.01 0.01 0.01 0.02 0.01 0.01 0.01 0.01 0.01 0.01 0.01 0.01 0.02 0.01 0.01 0.01 0.01 0.01 0.01 0.00 0.01 0.01
0.04 0.04 0.03 0.03 0.04 0.03 0.02 0.02 0.02 0.01 0.01 0.01 0.01 0.00 0.00 0.00 0.00 0.01 0.01 0.02 0.01 0.01 0.01 0.01 0.01 0.01 0.02 0.02 0.03 0.02 0.01 0.01 0.01 0.01 0.01 0.01 0.01 0.01
0.05 0.05 0.05 0.04 0.04 0.04 0.03 0.03 0.01 0.01 0.01 0.01 0.01 0.00 0.00 0.00 0.01 0.01 0.01 0.02 0.02 0.01 0.01 0.02 0.02 0.03 0.04 0.04 0.07 0.05 0.03 0.02 0.01 0.01 0.01 0.01 0.01 0.01
0.07 0.07 0.06 0.05 0.05 0.05 0.04 0.03 0.01 0.01 0.01 0.01 0.01 0.00 0.00 0.01 0.01 0.02 0.02 0.02 0.02 0.02 0.02 0.02 0.03 0.04 0.05 0.06 0.09 0.11 0.06 0.03 0.02 0.01 0.01 0.01 0.01 0.01
0.14 0.13 0.11 0.08 0.06 0.05 0.03 0.03 0.02 0.01 0.01 0.01 0.01 0.01 0.00 0.01 0.01 0.01 0.02 0.02 0.02 0.02 0.02 0.02 0.03 0.05 0.07 0.08 0.10 0.11 0.07 0.05 0.03 0.02 0.01 0.01 0.00 0.00
0.11 0.10 0.09 0.08 0.06 0.06 0.04 0.04 0.03 0.02 0.01 0.01 0.01 0.01 0.01 0.01 0.01 0.01 0.01 0.02 0.02 0.02 0.02 0.02 0.04 0.05 0.08 0.09 0.08 0.07 0.04 0.03 0.03 0.02 0.01 0.00 0.00 0.00
0.07 0.07 0.06 0.07 0.06 0.05 0.04 0.04 0.03 0.02 0.01 0.01 0.01 0.01 0.01 0.01 0.01 0.01 0.02 0.02 0.02 0.02 0.03 0.03 0.05 0.07 0.08 0.06 0.05 0.04 0.03 0.02 0.02 0.01 0.00 0.01 0.01 0.01
0.06 0.08 0.07 0.07 0.07 0.05 0.04 0.04 0.03 0.02 0.01 0.01 0.01 0.01 0.01 0.01 0.01 0.02 0.02 0.02 0.02 0.02 0.03 0.04 0.05 0.08 0.06 0.03 0.02 0.02 0.02 0.02 0.01 0.01 0.01 0.01 0.01 0.01
0.06 0.09 0.09 0.07 0.07 0.06 0.04 0.03 0.03 0.02 0.01 0.01 0.01 0.01 0.01 0.01 0.01 0.02 0.02 0.02 0.03 0.03 0.04 0.04 0.05 0.07 0.04 0.01 0.01 0.01 0.01 0.01 0.01 0.02 0.01 0.01 0.01 0.01
0.06 0.07 0.08 0.07 0.07 0.05 0.04 0.03 0.02 0.01 0.01 0.01 0.01 0.01 0.01 0.01 0.02 0.02 0.02 0.03 0.03 0.04 0.05 0.06 0.06 0.05 0.02 0.01 0.01 0.01 0.01 0.01 0.02 0.02 0.02 0.02 0.01 0.01
0.05 0.05 0.06 0.05 0.05 0.04 0.03 0.03 0.02 0.02 0.01 0.01 0.00 0.00 0.00 0.01 0.01 0.02 0.03 0.04 0.04 0.04 0.05 0.05 0.06 0.04 0.03 0.02 0.01 0.01 0.02 0.02 0.03 0.03 0.03 0.02 0.02 0.03
0.04 0.03 0.03 0.03 0.02 0.02 0.03 0.02 0.02 0.02 0.02 0.01 0.01 0.00 0.00 0.00 0.00 0.01 0.01 0.02 0.03 0.04 0.04 0.05 0.05 0.04 0.04 0.03 0.03 0.02 0.01 0.01 0.02 0.02 0.02 0.02 0.03 0.03
0.04 0.03 0.04 0.04 0.03 0.03 0.02 0.02 0.02 0.01 0.01 0.01 0.01 0.01 0.01 0.01 0.01 0.01 0.02 0.02 0.03 0.04 0.04 0.04 0.04 0.03 0.03 0.03 0.03 0.02 0.02 0.02 0.02 0.02 0.02 0.02 0.03 0.03
0.04 0.05 0.04 0.04 0.03 0.03 0.03 0.02 0.02 0.01 0.01 0.01 0.01 0.01 0.01 0.01 0.01 0.01 0.02 0.03 0.03 0.03 0.03 0.03 0.04 0.04 0.03 0.03 0.03 0.01 0.01 0.01 0.02 0.02 0.03 0.03 0.03 0.02
0.04 0.04 0.03 0.04 0.04 0.03 0.03 0.02 0.02 0.02 0.01 0.01 0.01 0.01 0.01 0.01 0.01 0.01 0.01 0.02 0.03 0.03 0.03 0.03 0.04 0.04 0.03 0.04 0.04 0.02 0.01 0.01 0.02 0.03 0.03 0.03 0.04 0.03
0.05 0.05 0.04 0.03 0.03 0.04 0.03 0.02 0.02 0.01 0.01 0.01 0.02 0.01 0.01 0.01 0.01 0.01 0.01 0.01 0.02 0.02 0.02 0.03 0.02 0.02 0.02 0.02 0.03 0.02 0.02 0.02 0.02 0.02 0.03 0.03 0.03 0.03
MSLP
1016.39 1016.58 1016.83 1017.12 1017.42 1017.68 1017.87 1017.97 1017.96 1017.85 1017.65 1017.38 1017.09 1016.80 1016.53 1016.30 1016.12 1015.98 1015.89 1015.84 1015.83 1015.83 1015.85 1015.89 1015.94 1015.99 1016.04 1016.09 1016.14 1016.18 1016.21 1016.23 1016.24 1016.23 1016.20 1016.14 1016.04 1015.89
1016.61 1016.72 1016.89 1017.10 1017.33 1017.55 1017.73 1017.84 1017.87 1017.81 1017.65 1017.43 1017.14 1016.83 1016.51 1016.20 1015.93 1015.70 1015.52 1015.39 1015.31 1015.29 1015.30 1015.34 1015.41 1015.50 1015.60 1015.70 1015.81 1015.90 1015.99 1016.07 1016.13 1016.16 1016.16 1016.12 1016.02 1015.87
1016.83 1016.88 1016.97 1017.11 1017.27 1017.46 1017.63 1017.75 1017.81 1017.79 1017.69 1017.50 1017.23 1016.91 1016.55 1016.18 1015.83 1015.51 1015.24 1015.03 1014.89 1014.82 1014.80 1014.84 1014.92 1015.03 1015.15 1015.30 1015.44 1015.59 1015.73 1015.86 1015.97 1016.04 1016.06 1016.02 1015.92 1015.75
1017.02 1017.02 1017.06 1017.14 1017.26 1017.41 1017.56 1017.69 1017.77 1017.79 1017.73 1017.57 1017.32 1017.00 1016.62 1016.22 1015.81 1015.42 1015.08 1014.81 1014.61 1014.49 1014.44 1014.45 1014.52 1014.63 1014.77 1014.93 1015.10 1015.28 1015.47 1015.63 1015.77 1015.87 1015.90 1015.86 1015.74 1015.53
1017.17 1017.16 1017.17 1017.21 1017.29 1017.39 1017.52 1017.64 1017.74 1017.77 1017.73 1017.60 1017.38 1017.07 1016.69 1016.27 1015.83 1015.41 1015.03 1014.72 1014.48 1014.31 1014.23 1014.21 1014.26 1014.35 1014.48 1014.64 1014.82 1015.02 1015.22 1015.40 1015.56 1015.67 1015.70 1015.65 1015.50 1015.26
1017.31 1017.30 1017.29 1017.30 1017.34 1017.41 1017.50 1017.60 1017.67 1017.70 1017.67 1017.55 1017.34 1017.05 1016.69 1016.28 1015.85 1015.43 1015.04 1014.71 1014.45 1014.27 1014.16 1014.12 1014.13 1014.20 1014.31 1014.45 1014.63 1014.82 1015.02 1015.21 1015.37 1015.47 1015.50 1015.42 1015.25 1014.97
1017.43 1017.43 1017.42 1017.41 1017.42 1017.44 1017.49 1017.54 1017.57 1017.57 1017.51 1017.39 1017.19 1016.91 1016.57 1016.19 1015.79 1015.40 1015.05 1014.73 1014.49 1014.30 1014.19 1014.13 1014.12 1014.16 1014.25 1014.37 1014.52 1014.70 1014.88 1015.06 1015.21 1015.30 1015.31 1015.22 1015.01 1014.71
1017.55 1017.56 1017.55 1017.53 1017.51 1017.49 1017.48 1017.46 1017.43 1017.37 1017.27 1017.12 1016.91 1016.64 1016.33 1015.98 1015.63 1015.29 1014.98 1014.72 1014.50 1014.35 1014.24 1014.19 1014.18 1014.20 1014.27 1014.37 1014.50 1014.66 1014.82 1014.98 1015.11 1015.17 1015.16 1015.04 1014.81 1014.48
1017.64 1017.68 1017.68 1017.66 1017.61 1017.55 1017.47 1017.38 1017.27 1017.14 1016.97 1016.77 1016.53 1016.26 1015.96 1015.65 1015.35 1015.07 1014.82 1014.61 1014.45 1014.34 1014.27 1014.23 1014.24 1014.27 1014.33 1014.42 1014.54 1014.67 1014.81 1014.95 1015.04 1015.08 1015.04 1014.89 1014.64 1014.29
1017.71 1017.77 1017.79 1017.77 1017.71 1017.61 1017.48 1017.32 1017.13 1016.91 1016.67 1016.41 1016.12 1015.83 1015.53 1015.25 1014.98 1014.75 1014.55 1014.41 1014.31 1014.24 1014.22 1014.23 1014.26 1014.32 1014.39 1014.49 1014.60 1014.72 1014.84 1014.95 1015.01 1015.02 1014.94 1014.77 1014.49 1014.13
1017.71 1017.81 1017.87 1017.87 1017.82 1017.70 1017.53 1017.32 1017.06 1016.76 1016.44 1016.11 1015.77 1015.44 1015.12 1014.84 1014.59 1014.39 1014.24 1014.14 1014.09 1014.08 1014.11 1014.16 1014.24 1014.34 1014.44 1014.55 1014.67 1014.78 1014.89 1014.96 1014.99 1014.96 1014.85 1014.65 1014.36 1013.98
1017.65 1017.80 1017.90 1017.95 1017.92 1017.82 1017.64 1017.39 1017.08 1016.73 1016.34 1015.95 1015.55 1015.17 1014.83 1014.52 1014.27 1014.08 1013.95 1013.87 1013.86 1013.89 1013.96 1014.06 1014.19 1014.32 1014.46 1014.60 1014.73 1014.85 1014.93 1014.98 1014.98 1014.91 1014.76 1014.53 1014.22 1013.83
1017.54 1017.74 1017.91 1018.01 1018.04 1017.97 1017.81 1017.55 1017.22 1016.84 1016.41 1015.96 1015.52 1015.10 1014.72 1014.38 1014.11 1013.91 1013.77 1013.70 1013.69 1013.74 1013.83 1013.97 1014.13 1014.30 1014.47 1014.64 1014.79 1014.90 1014.98 1015.00 1014.97 1014.86 1014.67 1014.41 1014.08 1013.70
1017.39 1017.66 1017.90 1018.08 1018.17 1018.16 1018.03 1017.80 1017.48 1017.09 1016.65 1016.18 1015.71 1015.26 1014.84 1014.47 1014.17 1013.93 1013.76 1013.67 1013.65 1013.69 1013.79 1013.93 1014.10 1014.29 1014.49 1014.68 1014.84 1014.96 1015.02 1015.03 1014.96 1014.82 1014.61 1014.32 1013.98 1013.59
1017.25 1017.59 1017.91 1018.16 1018.33 1018.38 1018.31 1018.13 1017.84 1017.47 1017.04 1016.58 1016.11 1015.64 1015.21 1014.82 1014.47 1014.20 1013.99 1013.84 1013.78 1013.78 1013.85 1013.97 1014.14 1014.33 1014.53 1014.72 1014.89 1015.01 1015.07 1015.06 1014.97 1014.81 1014.58 1014.28 1013.93 1013.56
1017.19 1017.59 1017.97 1018.29 1018.52 1018.63 1018.62 1018.50 1018.26 1017.94 1017.55 1017.12 1016.67 1016.22 1015.79 1015.38 1015.01 1014.69 1014.43 1014.22 1014.09 1014.03 1014.04 1014.11 1014.24 1014.41 1014.59 1014.77 1014.93 1015.05 1015.10 1015.09 1014.99 1014.83 1014.59 1014.30 1013.97 1013.62
1017.23 1017.68 1018.11 1018.47 1018.75 1018.92 1018.97 1018.89 1018.72 1018.46 1018.13 1017.75 1017.35 1016.93 1016.52 1016.11 1015.73 1015.37 1015.05 1014.78 1014.57 1014.42 1014.35 1014.34 1014.40 1014.51 1014.66 1014.81 1014.95 1015.06 1015.12 1015.11 1015.03 1014.88 1014.66 1014.40 1014.10 1013.78
1017.42 1017.90 1018.35 1018.75 1019.05 1019.25 1019.33 1019.31 1019.19 1018.99 1018.73 1018.42 1018.08 1017.71 1017.33 1016.94 1016.55 1016.16 1015.79 1015.44 1015.15 1014.90 1014.73 1014.63 1014.60 1014.63 1014.71 1014.82 1014.94 1015.03 1015.09 1015.10 1015.05 1014.93 1014.76 1014.55 1014.30 1014.03
1017.76 1018.25 1018.71 1019.11 1019.42 1019.63 1019.73 1019.74 1019.67 1019.52 1019.32 1019.08 1018.81 1018.50 1018.16 1017.79 1017.40 1016.99 1016.57 1016.16 1015.77 1015.42 1015.14 1014.93 1014.79 1014.73 1014.74 1014.79 1014.87 1014.95 1015.02 1015.05 1015.03 1014.97 1014.86 1014.71 1014.53 1014.33
1018.24 1018.74 1019.19 1019.58 1019.87 1020.07 1020.18 1020.21 1020.16 1020.06 1019.91 1019.73 1019.51 1019.26 1018.96 1018.62 1018.23 1017.80 1017.34 1016.86 1016.39 1015.95 1015.55 1015.23 1014.99 1014.83 1014.75 1014.73 1014.77 1014.83 1014.89 1014.94 1014.97 1014.96 1014.91 1014.83 1014.73 1014.60
1018.83 1019.33 1019.77 1020.14 1020.41 1020.60 1020.70 1020.72 1020.69 1020.61 1020.50 1020.35 1020.18 1019.96 1019.69 1019.37 1018.99 1018.54 1018.05 1017.52 1016.98 1016.45 1015.96 1015.54 1015.19 1014.93 1014.77 1014.68 1014.66 1014.69 1014.74 1014.80 1014.86 1014.89 1014.90 1014.89 1014.86 1014.80
1019.50 1020.00 1020.43 1020.78 1021.03 1021.19 1021.28 1021.30 1021.26 1021.19 1021.09 1020.97 1020.81 1020.61 1020.36 1020.05 1019.67 1019.21 1018.69 1018.13 1017.54 1016.94 1016.38 1015.88 1015.44 1015.10 1014.85 1014.69 1014.61 1014.59 1014.61 1014.66 1014.72 1014.78 1014.83 1014.86 1014.88 1014.88
1020.18 1020.70 1021.13 1021.47 1021.71 1021.85 1021.92 1021.92 1021.88 1021.80 1021.70 1021.57 1021.41 1021.22 1020.97 1020.65 1020.27 1019.81 1019.28 1018.70 1018.08 1017.46 1016.85 1016.29 1015.80 1015.39 1015.07 1014.83 1014.68 1014.60 1014.57 1014.58 1014.62 1014.66 1014.71 1014.76 1014.80 1014.83
Thickness
5688 5687 5686 5685 5684 5683 5682 5680 5676 5673 5676 5679 5680 5682 5682 5682 5683 5683 5683 5684 5683 5682 5682 5681 5681 5681 5681 5680 5679 5678 5678 5678 5677 5677 5677 5678 5678 5678
5683 5683 5682 5681 5680 5679 5678 5676 5675 5672 5671 5674 5675 5676 5677 5678 5678 5678 5678 5679 5679 5678 5678 5677 5678 5677 5677 5676 5675 5674 5674 5673 5673 5673 5673 5673 5673 5673
5678 5678 5677 5677 5676 5674 5673 5672 5670 5669 5667 5669 5670 5671 5672 5672 5673 5673 5673 5674 5674 5673 5673 5673 5673 5673 5672 5672 5671 5670 5670 5669 5669 5669 5669 5669 5669 5668
5673 5673 5673 5673 5671 5670 5669 5668 5667 5665 5664 5663 5664 5665 5666 5666 5667 5667 5668 5669 5668 5669 5669 5669 5668 5668 5668 5667 5666 5666 5665 5665 5664 5664 5664 5664 5664 5663
5669 5669 5669 5668 5667 5666 5665 5664 5663 5662 5660 5659 5659 5659 5660 5660 5660 5661 5662 5662 5663 5663 5663 5663 5663 5663 5663 5662 5662 5661 5661 5661 5660 5659 5658 5658 5658 5658
5665 5665 5665 5664 5663 5663 5661 5659 5658 5657 5655 5654 5654 5654 5654 5654 5654 5654 5654 5655 5655 5656 5656 5656 5656 5657 5657 5657 5656 5656 5656 5655 5655 5654 5653 5653 5653 5653
5660 5660 5661 5661 5661 5660 5659 5656 5654 5652 5651 5649 5649 5648 5649 5648 5648 5647 5647 5648 5649 5649 5649 5649 5649 5650 5650 5650 5650 5650 5650 5650 5650 5649 5649 5648 5648 5647
5655 5655 5656 5656 5656 5655 5655 5653 5652 5650 5648 5646 5645 5645 5645 5644 5643 5642 5641 5641 5641 5642 5641 5642 5642 5643 5643 5643 5644 5644 5645 5645 5645 5644 5644 5643 5643 5642
5650 5650 5651 5652 5651 5651 5650 5649 5648 5647 5647 5645 5643 5642 5642 5642 5640 5638 5637 5636 5635 5636 5634 5635 5635 5635 5636 5636 5638 5639 5639 5639 5639 5639 5639 5638 5637 5637
5646 5646 5646 5646 5646 5645 5644 5644 5643 5643 5642 5642 5641 5641 5640 5639 5637 5635 5633 5631 5630 5630 5629 5628 5628 5628 5630 5630 5631 5633 5633 5633 5633 5633 5633 5632 5631 5630
5640 5640 5640 5640 5641 5640 5639 5638 5638 5639 5639 5638 5637 5637 5636 5635 5633 5630 5628 5627 5626 5625 5623 5622 5622 5621 5622 5624 5625 5626 5626 5626 5626 5626 5626 5625 5624 5623
5633 5634 5634 5635 5635 5634 5633 5633 5632 5633 5633 5633 5632 5632 5631 5630 5629 5627 5626 5623 5621 5620 5619 5616 5616 5615 5616 5617 5617 5618 5618 5619 5619 5619 5619 5618 5618 5617
5627 5628 5629 5629 5628 5627 5628 5628 5628 5628 5627 5627 5626 5626 5626 5625 5624 5622 5621 5619 5617 5616 5615 5612 5611 5609 5609 5610 5610 5610 5611 5611 5611 5611 5612 5611 5611 5611
5621 5622 5623 5623 5622 5622 5622 5622 5622 5622 5622 5620 5620 5619 5619 5618 5617 5616 5615 5613 5612 5611 5609 5607 5606 5604 5604 5604 5604 5604 5604 5603 5604 5604 5604 5604 5604 5604
5615 5615 5616 5616 5616 5615 5615 5615 5615 5615 5615 5614 5613 5613 5612 5611 5611 5609 5608 5607 5606 5605 5603 5602 5601 5600 5599 5599 5599 5598 5598 5598 5597 5597 5597 5597 5597 5597
5606 5607 5607 5607 5608 5608 5608 5608 5608 5608 5608 5607 5607 5606 5605 5604 5604 5602 5601 5600 5600 5598 5597 5596 5595 5595 5594 5593 5593 5592 5592 5591 5591 5591 5591 5591 5591 5590
5598 5598 5599 5599 5600 5600 5600 5600 5600 5600 5600 5600 5599 5599 5598 5597 5596 5595 5594 5593 5593 5592 5591 5590 5589 5588 5587 5587 5587 5586 5586 5585 5585 5585 5585 5586 5586 5585
5590 5591 5592 5593 5593 5593 5593 5593 5593 5593 5593 5593 5592 5592 5591 5591 5589 5588 5587 5586 5585 5585 5585 5584 5583 5583 5582 5581 5580 5580 5580 5580 5579 5578 5578 5579 5581 5580
5584 5585 5585 5586 5586 5586 5586 5586 5586 5586 5586 5586 5586 5586 5585 5584 5583 5582 5581 5579 5579 5578 5578 5577 5577 5577 5578 5578 5576 5573 5573 5573 5572 5572 5572 5572 5573 5574
5577 5579 5579 5579 5579 5579 5579 5579 5579 5579 5579 5579 5579 5579 5578 5578 5577 5576 5575 5574 5573 5572 5572 5571 5571 5571 5571 5572 5571 5568 5567 5567 5567 5567 5566 5566 5565 5565
5571 5572 5573 5572 5572 5572 5572 5573 5573 5572 5572 5572 5572 5572 5572 5571 5571 5570 5569 5567 5566 5567 5566 5566 5565 5564 5564 5564 5564 5564 5562 5560 5560 5559 5559 5560 5561 5561
5565 5566 5566 5565 5564 5565 5565 5566 5566 5566 5566 5565 5566 5566 5565 5565 5565 5564 5563 5562 5561 5561 5559 5558 5557 5557 5558 5558 5559 5559 5557 5555 5553 5552 5552 5552 5553 5555
5558 5558 5558 5558 5558 5559 5560 5561 5561 5560 5560 5559 5559 5559 5559 5558 5557 5557 5556 5555 5555 5554 5553 5552 5551 5551 5551 5551 5551 5551 5551 5549 5549 5548 5547 5545 5545 5544